Weather History for Decorah, IA

Change the Weather History Date:

Tuesday, March 25, 2014

  Actual Average Record
Temperature  
Mean Temperature 18 °F -  
Max Temperature 21 °F 47 °F 78 °F (2007)
Min Temperature 14 °F 27 °F 1 °F (1952)
Degree Days  
Heating Degree Days 48    
Moisture  
Dew Point 5 °F    
Average Humidity 58    
Maximum Humidity 86    
Minimum Humidity 45    
Precipitation  
Precipitation 0.00 in - - ()
Sea Level Pressure  
Sea Level Pressure 30.17 in    
Wind  
Wind Speed 10 mph (NW)    
Max Wind Speed 25 mph    
Max Gust Speed 30 mph    
Visibility 10 miles    
Events Snow    
Averages and records for this station are not official NWS values.
T = Trace of Precipitation, MM = Missing Value Source: NWS Daily Summary

Daily Weather History Graph

Daily Weather History Graph

Search for Another Location

Airport:

Trip Planner

Search our weather history database for the weather conditions in past years. The results will help you decide how hot, cold, wet, or windy it might be!

Date:

Astronomy

Mar. 25, 2014 Rise Set
Actual Time 7:01 AM CDT 7:25 PM CDT
Civil Twilight 6:32 AM CDT 7:53 PM CDT
Nautical Twilight 5:59 AM CDT 8:27 PM CDT
Astronomical Twilight 5:24 AM CDT 9:02 PM CDT
Moon 3:31 AM CDT (3/25) 1:48 PM CDT (3/25)
Length of Visible Light 13h 21m
Length of Day
12h 24m
Waning Crescent, 32% of the Moon is Illuminated
Mar 25
Waning Crescent
Mar 30
New
Apr 7
First Quarter
Apr 15
Full
Apr 22
Last Quarter

Hourly Weather History & Observations

Time (CDT) Temp. Windchill Dew Point Humidity Pressure Visibility Wind Dir Wind Speed Gust Speed Precip Events Conditions
12:15 AM 21.2 °F 12.6 °F 10.4 °F 63% 30.08 in 10.0 mi WNW 6.9 mph - N/A   Clear
12:35 AM 21.2 °F 13.6 °F 10.4 °F 63% 30.08 in 10.0 mi WNW 5.8 mph - N/A   Clear
12:55 AM 21.2 °F 13.6 °F 10.4 °F 63% 30.08 in 10.0 mi WNW 5.8 mph - N/A   Clear
1:15 AM 19.4 °F 11.5 °F 10.4 °F 68% 30.07 in 10.0 mi WNW 5.8 mph - N/A   Clear
1:35 AM 19.4 °F 12.8 °F 10.4 °F 68% 30.07 in 10.0 mi WNW 4.6 mph - N/A   Partly Cloudy
1:55 AM 19.4 °F 12.8 °F 10.4 °F 68% 30.07 in 10.0 mi West 4.6 mph - N/A   Scattered Clouds
2:15 AM 19.4 °F - 10.4 °F 68% 30.07 in 10.0 mi Calm Calm - N/A   Mostly Cloudy
2:35 AM 19.4 °F 12.8 °F 10.4 °F 68% 30.07 in 10.0 mi West 4.6 mph - N/A   Overcast
2:55 AM 19.4 °F 12.8 °F 10.4 °F 68% 30.06 in 10.0 mi WNW 4.6 mph - N/A   Overcast
3:15 AM 17.6 °F - 10.4 °F 73% 30.06 in 10.0 mi Calm Calm - N/A   Mostly Cloudy
3:35 AM 19.4 °F 10.4 °F 10.4 °F 68% 30.06 in 10.0 mi WNW 6.9 mph - N/A   Mostly Cloudy
3:55 AM 19.4 °F 10.4 °F 12.2 °F 74% 30.06 in 10.0 mi Variable 6.9 mph - N/A   Mostly Cloudy
4:15 AM 19.4 °F 10.4 °F 12.2 °F 74% 30.06 in 10.0 mi WNW 6.9 mph - N/A   Mostly Cloudy
4:35 AM 19.4 °F 9.5 °F 14.0 °F 80% 30.06 in 10.0 mi NW 8.1 mph - N/A   Overcast
4:55 AM 19.4 °F 3.6 °F 15.8 °F 86% 30.07 in 1.2 mi NNW 19.6 mph 28.8 mph N/A Snow Light Snow
5:15 AM 19.4 °F 5.5 °F 14.0 °F 80% 30.08 in 8.0 mi NW 15.0 mph 23.0 mph N/A Snow Light Snow
5:35 AM 19.4 °F 5.0 °F 10.4 °F 68% 30.08 in 10.0 mi NNW 16.1 mph 21.9 mph N/A   Overcast
5:55 AM 17.6 °F 2.7 °F 10.4 °F 73% 30.10 in 10.0 mi NNW 16.1 mph 24.2 mph N/A Snow Light Snow
6:15 AM 15.8 °F -1.1 °F 6.8 °F 68% 30.11 in 10.0 mi NNW 19.6 mph 26.5 mph N/A   Mostly Cloudy
6:35 AM 15.8 °F -1.1 °F 5.0 °F 62% 30.12 in 10.0 mi NNW 19.6 mph 27.6 mph N/A   Overcast
6:55 AM 14.0 °F -2.5 °F -0.4 °F 53% 30.13 in 10.0 mi NNW 17.3 mph - N/A   Scattered Clouds
7:15 AM 14.0 °F -2.0 °F -0.4 °F 53% 30.15 in 10.0 mi NNW 16.1 mph 25.3 mph N/A   Clear
7:35 AM 14.0 °F -2.0 °F -0.4 °F 53% 30.16 in 10.0 mi NW 16.1 mph - N/A   Clear
7:55 AM 14.0 °F -3.0 °F -0.4 °F 53% 30.17 in 10.0 mi NNW 18.4 mph 27.6 mph N/A   Clear
8:15 AM 14.0 °F -4.3 °F -0.4 °F 53% 30.18 in 10.0 mi NW 21.9 mph - N/A   Clear
8:35 AM 14.0 °F -4.7 °F -0.4 °F 53% 30.17 in 10.0 mi NNW 23.0 mph - N/A   Clear
8:55 AM 14.0 °F -5.5 °F -0.4 °F 53% 30.19 in 10.0 mi NNW 25.3 mph - N/A   Clear
9:15 AM 14.0 °F -4.7 °F -2.2 °F 49% 30.19 in 10.0 mi NNW 23.0 mph 29.9 mph N/A   Clear
9:35 AM 14.0 °F -3.9 °F -2.2 °F 49% 30.20 in 10.0 mi NNW 20.7 mph 28.8 mph N/A   Clear
9:55 AM 14.0 °F -3.4 °F -0.4 °F 53% 30.21 in 10.0 mi NW 19.6 mph - N/A   Clear
10:15 AM 14.0 °F -1.4 °F -0.4 °F 53% 30.22 in 10.0 mi North 15.0 mph 27.6 mph N/A   Clear
10:35 AM 14.0 °F -1.4 °F -0.4 °F 53% 30.22 in 10.0 mi NNW 15.0 mph 23.0 mph N/A   Clear
10:55 AM 14.0 °F -3.0 °F -0.4 °F 53% 30.22 in 10.0 mi NNW 18.4 mph 27.6 mph N/A   Clear
11:15 AM 15.8 °F -0.6 °F -2.2 °F 45% 30.23 in 10.0 mi North 18.4 mph 29.9 mph N/A   Clear
11:35 AM 15.8 °F -0.6 °F -0.4 °F 49% 30.24 in 10.0 mi NW 18.4 mph 25.3 mph N/A   Clear
11:55 AM 15.8 °F 0.9 °F -0.4 °F 49% 30.24 in 10.0 mi NNW 15.0 mph 25.3 mph N/A   Clear
12:15 PM 17.6 °F 2.2 °F 1.4 °F 49% 30.24 in 10.0 mi NNW 17.3 mph 26.5 mph N/A   Clear
12:35 PM 17.6 °F 2.2 °F 1.4 °F 49% 30.24 in 10.0 mi NW 17.3 mph 23.0 mph N/A   Clear
12:55 PM 17.6 °F 5.0 °F 1.4 °F 49% 30.24 in 10.0 mi WNW 11.5 mph 20.7 mph N/A   Scattered Clouds
1:15 PM 19.4 °F 4.5 °F 1.4 °F 46% 30.23 in 10.0 mi NW 17.3 mph 25.3 mph N/A   Scattered Clouds
1:35 PM 19.4 °F 5.5 °F 3.2 °F 49% 30.22 in 10.0 mi NNW 15.0 mph 23.0 mph N/A   Partly Cloudy
1:55 PM 19.4 °F 6.0 °F 1.4 °F 46% 30.23 in 10.0 mi WNW 13.8 mph 23.0 mph N/A   Partly Cloudy
2:15 PM 19.4 °F 4.1 °F 1.4 °F 46% 30.22 in 10.0 mi NW 18.4 mph 25.3 mph N/A   Scattered Clouds
2:35 PM 19.4 °F 5.5 °F 3.2 °F 49% 30.21 in 10.0 mi NNW 15.0 mph - N/A   Mostly Cloudy
2:55 PM 19.4 °F 5.5 °F 3.2 °F 49% 30.21 in 10.0 mi NW 15.0 mph - N/A   Mostly Cloudy
3:15 PM 19.4 °F 3.2 °F 3.2 °F 49% 30.21 in 10.0 mi NW 20.7 mph - N/A   Mostly Cloudy
3:35 PM 21.2 °F 8.9 °F 5.0 °F 50% 30.21 in 10.0 mi WNW 12.7 mph 24.2 mph N/A   Mostly Cloudy
3:55 PM 21.2 °F 9.5 °F 5.0 °F 50% 30.21 in 10.0 mi WNW 11.5 mph 25.3 mph N/A   Mostly Cloudy
4:15 PM 21.2 °F 9.5 °F 3.2 °F 46% 30.20 in 10.0 mi WNW 11.5 mph 19.6 mph N/A   Mostly Cloudy
4:35 PM 21.2 °F 8.3 °F 5.0 °F 50% 30.20 in 10.0 mi NW 13.8 mph - N/A   Overcast
4:55 PM 21.2 °F 8.3 °F 5.0 °F 50% 30.21 in 10.0 mi WNW 13.8 mph 23.0 mph N/A   Mostly Cloudy
5:15 PM 21.2 °F 8.9 °F 5.0 °F 50% 30.20 in 10.0 mi WNW 12.7 mph 23.0 mph N/A   Overcast
5:35 PM 21.2 °F 8.9 °F 5.0 °F 50% 30.20 in 10.0 mi NW 12.7 mph 23.0 mph N/A   Overcast
5:55 PM 21.2 °F 7.8 °F 5.0 °F 50% 30.20 in 10.0 mi NW 15.0 mph 25.3 mph N/A   Overcast
6:15 PM 21.2 °F 7.8 °F 5.0 °F 50% 30.20 in 10.0 mi NW 15.0 mph - N/A   Overcast
6:35 PM 21.2 °F 10.1 °F 6.8 °F 54% 30.20 in 10.0 mi NW 10.4 mph 19.6 mph N/A   Overcast
6:55 PM 21.2 °F 11.7 °F 6.8 °F 54% 30.20 in 10.0 mi WNW 8.1 mph 17.3 mph N/A   Overcast
7:15 PM 21.2 °F 11.7 °F 6.8 °F 54% 30.20 in 10.0 mi WNW 8.1 mph 15.0 mph N/A   Overcast
7:35 PM 19.4 °F 9.5 °F 6.8 °F 58% 30.19 in 10.0 mi WNW 8.1 mph 15.0 mph N/A   Overcast
7:55 PM 19.4 °F 7.9 °F 5.0 °F 54% 30.19 in 10.0 mi WNW 10.4 mph 16.1 mph N/A   Overcast
8:15 PM 19.4 °F 9.5 °F 5.0 °F 54% 30.19 in 10.0 mi WNW 8.1 mph 16.1 mph N/A   Overcast
8:35 PM 19.4 °F 12.8 °F 5.0 °F 54% 30.19 in 10.0 mi WNW 4.6 mph 16.1 mph N/A   Overcast
8:55 PM 19.4 °F 11.5 °F 6.8 °F 58% 30.20 in 10.0 mi WNW 5.8 mph 11.5 mph N/A   Mostly Cloudy
9:15 PM 19.4 °F 14.3 °F 5.0 °F 54% 30.19 in 10.0 mi WNW 3.5 mph - N/A   Mostly Cloudy
9:35 PM 17.6 °F - 5.0 °F 58% 30.19 in 10.0 mi Calm Calm - N/A   Mostly Cloudy
9:55 PM 17.6 °F - 5.0 °F 58% 30.19 in 10.0 mi Calm Calm - N/A   Mostly Cloudy
10:15 PM 17.6 °F - 5.0 °F 58% 30.20 in 10.0 mi Calm Calm - N/A   Partly Cloudy
10:35 PM 17.6 °F - 5.0 °F 58% 30.19 in 10.0 mi Calm Calm - N/A   Partly Cloudy
10:55 PM 15.8 °F - 5.0 °F 62% 30.20 in 10.0 mi Calm Calm - N/A   Partly Cloudy
11:15 PM 15.8 °F - 6.8 °F 68% 30.19 in 10.0 mi Calm Calm - N/A   Partly Cloudy
11:35 PM 15.8 °F - 6.8 °F 68% 30.19 in 8.0 mi Calm Calm - N/A   Partly Cloudy
11:55 PM 15.8 °F - 6.8 °F 68% 30.19 in 10.0 mi Calm Calm - N/A   Partly Cloudy